Location: Newark
(43.0000°N, 1.6781°W)
Time: 08:20:26
(UTC+00:00)

AO-7 - Pass Details

Date: 07 December 2022
Orbit: 1440 x 1459 km, 101.9° (Epoch: 28 January)

Event Time Altitude Azimuth Distance (km) Brightness Sun altitude
Rises 17:38:57 0° 215° (SW) 4,527 ? -11.9°
Reaches altitude 10° 17:43:12 10° 235° (SW) 3,551 ? -12.6°
Maximum altitude 17:47:54 16° 271° (W) 3,097 ? -13.4°
Drops below altitude 10° 17:52:38 10° 307° (NW) 3,559 ? -14.3°
Sets 17:56:58 0° 327° (NNW) 4,541 ? -15.0°
